TimeEDT,TemperatureF,Dew PointF,Humidity,Sea Level PressureIn,VisibilityMPH,Wind Direction,Wind SpeedMPH,Gust SpeedMPH,PrecipitationIn,Events,Conditions,WindDirDegrees,DateUTC
12:00 AM,51.8,32.0,47,30.23,9.0,NNW,9.2,-,N/A,,Clear,330,2013-05-26 04:00:00
1:00 AM,50.0,33.8,54,30.22,9.0,NNW,10.4,18.4,N/A,,Clear,330,2013-05-26 05:00:00
2:00 AM,48,33,45,30.22,10,NW,10.4,,,,,320,2013-05-26 06:00:00
2:00 AM,48.2,33.8,58,30.22,9.0,NNW,11.5,-,N/A,,Clear,330,2013-05-26 06:00:00
3:00 AM,48.2,33.8,58,30.21,9.0,NW,8.1,-,N/A,,Clear,320,2013-05-26 07:00:00
4:00 AM,46.4,33.8,62,30.21,9.0,NW,6.9,-,N/A,,Clear,320,2013-05-26 08:00:00
5:00 AM,44.6,33.8,66,30.21,9.0,NW,8.1,-,N/A,,Clear,320,2013-05-26 09:00:00
6:00 AM,44.6,33.8,66,30.23,9.0,NNW,8.1,-,N/A,,Clear,330,2013-05-26 10:00:00
7:00 AM,46.4,33.8,62,30.24,9.0,NNW,9.2,-,N/A,,Clear,330,2013-05-26 11:00:00
8:00 AM,49,35,47,30.25,10,NW,8.1,,,,,320,2013-05-26 12:00:00
8:00 AM,50.0,35.6,58,30.25,9.0,NW,10.4,-,N/A,,Clear,320,2013-05-26 12:00:00
9:00 AM,53.6,33.8,47,30.26,9.0,WNW,13.8,-,N/A,,Clear,300,2013-05-26 13:00:00
10:00 AM,55.4,30.2,38,30.25,9.0,NNW,15.0,-,N/A,,Clear,330,2013-05-26 14:00:00
11:00 AM,57.2,28.4,33,30.25,9.0,NW,11.5,19.6,N/A,,Clear,320,2013-05-26 15:00:00
12:00 PM,59.0,30.2,34,30.25,9.0,NNW,10.4,17.3,N/A,,Clear,330,2013-05-26 16:00:00
1:00 PM,60.8,28.4,29,30.24,9.0,WNW,10.4,19.6,N/A,,Clear,300,2013-05-26 17:00:00
2:00 PM,62,28,16,30.24,10,NW,15.0,,,,,320,2013-05-26 18:00:00
2:00 PM,62.6,28.4,27,30.24,9.0,NW,13.8,20.7,N/A,,Clear,320,2013-05-26 18:00:00
3:00 PM,64.4,24.8,22,30.22,9.0,NW,16.1,24.2,N/A,,Clear,320,2013-05-26 19:00:00
4:00 PM,62.6,26.6,26,30.22,9.0,NNW,12.7,24.2,N/A,,Clear,340,2013-05-26 20:00:00
5:00 PM,62.6,26.6,26,30.22,9.0,NW,13.8,21.9,N/A,,Clear,310,2013-05-26 21:00:00
6:00 PM,62.6,26.6,26,30.21,9.0,NNW,13.8,24.2,N/A,,Clear,330,2013-05-26 22:00:00
7:00 PM,62.6,28.4,27,30.21,9.0,NW,12.7,-,N/A,,Clear,320,2013-05-26 23:00:00
8:00 PM,60,28,19,30.21,10,NNW,9.2,,,,,330,2013-05-27 00:00:00
8:00 PM,60.8,28.4,29,30.21,9.0,NNW,11.5,18.4,N/A,,Clear,330,2013-05-27 00:00:00
9:00 PM,59.0,28.4,31,30.21,9.0,NW,5.8,-,N/A,,Clear,310,2013-05-27 01:00:00
10:00 PM,57.2,26.6,31,30.22,9.0,NW,4.6,-,N/A,,Clear,320,2013-05-27 02:00:00
11:00 PM,55.4,30.2,38,30.22,9.0,NW,6.9,-,N/A,,Clear,320,2013-05-27 03:00:00